User: anonymous   Login
Location: Mississauga
(43.5802°N, 79.6166°W)
Time: 20:39:18
(UTC-05:00)
Language:

Cosmos 1437 Rocket - Orbit

View from above orbital plane
View from above orbital plane
View from above satellite
View from above satellite

Ground track
Ground track

The orbit data is extracted from the following two-line orbital elements,

1 13771U 83003B   14355.15989021  .00006593  00000-0  43038-3 0  2049
2 13771 081.1583 329.8129 0031089 133.2513 227.1314 15.07313594736701
Epoch (UTC): 21 December 2014 03:50:14
Eccentricity: 0.0031089
inclination: 81.1583°
perigee height: 523 km
apogee height: 566 km
right ascension of ascending node: 329.8129°
argument of perigee: 133.2513°
revolutions per day: 15.07313594
mean anomaly at epoch: 227.1314°
orbit number at epoch: 73670

The dashed part of the orbit path shows where the satellite is in the earth's shadow,  

DLR